DELTA 2 R/B(1)

基本信息
目录编号:
25619
目录名称:
DELTA 2 R/B(1)
国际标识:
1999-003B
轨道中心:
EARTH
物体状态:
在轨
发射日期:
1999-02-07 UTC
国别:
美国 (US)
轨道信息
数据来源: 国际轨道数据
星历时间: 2026-07-14T13:10:56+0800
半长轴: 8059.975km
偏心率: 0.1738996
轨道倾角: 22.455°
近地点辐角: 262.962°
升交点赤经: 274.953°
平近点角: 77.084°
近地点: 280.211km
远地点: 3083.465km
周期: 120.022分钟
每日圈数: 11.997817
详细信息
发射场:
AFETR
轨道高度:
LEO
数据来源:
AOE Integration Group
参考系:
TEME
时间系统:
UTC
历元类型:
SGP4
2D轨道图
3D轨道图
轨道高度分析图
轨道倾角分析图
轨道综合分析图
查看轨道综合分析图